Other Public Products
Issued by NWS Grand Forks, ND

Home | Current Version | Previous Version | Graphics & Text | Print | Product List | Glossary On
Versions: 1 2 3 4 5 6 7 8 9 10 11 12 13 14 15 16 17 18 19 20 21 22 23 24 25 26 27 28 29 30 31 32 33 34 35 36 37 38 39 40 41 42 43 44 45 46 47 48 49 50
000
FPUS83 KFGF 010510
OPUFGF
PRAIRIE TO PINES WEATHER ROUNDUP
NATIONAL WEATHER SERVICE EASTERN NORTH DAKOTA/GRAND FORKS ND
1200 AM CDT TUE SEP 01 2015

 **SATELLITE DATA USED TO AUGMENT SKY COVER AT AUTOMATED STATIONS**
 *****  WEATHER ACROSS EASTERN NORTH DAKOTA  *****

CITY           SKY/WX    TMP DP  RH WIND       PRES   REMARKS
GRAND FORKS    PTCLDY    58  54  86 S6        29.85R
GRAND FORKS AF PTCLDY    59  55  87 SW5       29.85S
GRAND CITY NWS   N/A     61 N/A N/A W3          N/A
BUXTON         NOT AVBL
DEVILS LAKE    PTCLDY    66  48  52 SW5       29.85F
FARGO          MOCLDY    65  62  90 SW3       29.88R
WAHPETON ARPT  NOT AVBL
$$

 *****  WEATHER ACROSS CENTRAL AND WESTERN NORTH DAKOTA  *****

CITY           SKY/WX    TMP DP  RH WIND       PRES   REMARKS
JAMESTOWN      CLOUDY    61  54  77 W5        29.90R
BISMARCK       PTCLDY    60  52  74 SE6       29.90F
MINOT          CLEAR     59  45  59 SW6       29.84S
MINOT AFB      NOT AVBL
GARRISON         N/A     61  53  75 CALM      29.87S
WILLISTON      CLEAR     54  44  69 S5        29.87R
DICKINSON      CLEAR     56  41  57 S7        29.89F
HETTINGER      CLEAR     59  49  69 SE5       29.95S
$$

 *****  OTHER OBSERVATIONS NORTHEAST NORTH DAKOTA  *****

CITY           SKY/WX    TMP DP  RH WIND       PRES   REMARKS
WALHALLA       FAIR      64  45  48 MISG      29.82S
LANGDON        FAIR      55  46  71 SW8       29.85S
CAVALIER       FAIR      55  48  76 S6        29.83R
GRAFTON        FAIR      55  50  82 S7        29.85R
CANDO          NOT AVBL
FORT TOTTEN      N/A     57  47  69 E2        29.95S
ROLLA          FAIR      48  45  87 SW6       29.86R
RUGBY          FAIR      57  48  72 S7        29.85S
 ***** THE ABOVE OBSERVATIONS ARE NON NWS ARE NOT QUALITY
        CONTROLLED AND MAY MIS-REPORT RAIN FOR SNOW...
$$

 *****  OTHER OBSERVATIONS SOUTHEAST NORTH DAKOTA *****

CITY           SKY/WX    TMP DP  RH WIND       PRES   REMARKS
COOPERSTOWN    NOT AVBL
VALLEY CITY    FAIR      61  61 100 CALM      29.90S
OAKES            N/A     63  63 100 CALM      29.91R
GWINNER          N/A     63  63 100 W6        29.91R
BUFFALO        NOT AVBL
WYNDMERE         N/A    N/A N/A N/A NW3         N/A
 ***** THE ABOVE OBSERVATIONS ARE NON NWS ARE NOT QUALITY
       CONTROLLED AND MAY MIS-REPORT RAIN FOR SNOW...
$$

  *****  WEATHER ACROSS NORTHERN MINNESOTA  *****

CITY           SKY/WX    TMP DP  RH WIND       PRES   REMARKS
FLAG ISLAND    PTCLDY    66  61  82 W12       29.80S
WARROAD        MOCLDY    63  57  82 SW6       29.83S
ROSEAU         PTCLDY    61  54  77 S6        29.84R
HALLOCK        CLEAR     57  48  72 CALM      29.83R
THF RVR FALLS  PTCLDY   N/A N/A N/A W3        29.86R
HALSTAD        NOT AVBL
FOSSTON        MOCLDY    59  57  94 CALM      29.89R
BAUDETTE       MOCLDY    64  61  90 SW6       29.84R
WASKISH        CLOUDY    64  64 100 SW6       29.86S
CROOKSTON      PTCLDY    61  54  77 W3        29.87R
$$
  *****  WEATHER ACROSS CENTRAL AND WEST MINNESOTA  *****

CITY           SKY/WX    TMP DP  RH WIND       PRES   REMARKS
BEMIDJI        CLOUDY    63  63  99 W6        29.88R
PARK RAPIDS    MOCLDY    67  64  90 CALM      29.89R
WADENA         PTCLDY    66  64  94 CALM      29.89R
DETROIT LAKES  PTCLDY    66  63  88 CALM      29.91R
MOORHEAD       MOCLDY    64  64 100 CALM      29.89R FOG
FERGUS FALLS   MOCLDY    66  66 100 CALM      29.88R FOG
ELBOW LAKE     FAIR      67  67  98 NW6       29.89R
MORRIS MN      MOCLDY    70  66  88 CALM      29.88S
STAPLES        MOCLDY    68  66  94 CALM      29.89R
WHEATON        MOCLDY    64  63  94 CALM      29.90S
$$
  *****  WEATHER ELSEWHERE ACROSS MINNESOTA  *****

CITY           SKY/WX    TMP DP  RH WIND       PRES   REMARKS
DULUTH         MOCLDY    72  68  87 SW8       29.88S
INTRNTL FALLS  CLOUDY    63  62  97 SW3       29.84S
ELY            PTCLDY    72  66  83 SW6       29.87S
CLOQUET        MOCLDY    72  66  83 S5        29.88S
BRAINERD       CLOUDY    71  67  87 S6        29.88R
HIBBING        CLOUDY    72  67  84 S3        29.87R
ALEXANDRIA     MOCLDY    70  67  90 CALM      29.91R
SAINT CLOUD    PTCLDY    71  68  90 S5        29.89R
MINNEAPOLIS    MOCLDY    77  70  79 S3        29.91R
$$

  *****  WEATHER ACROSS SOUTH DAKOTA  *****

CITY           SKY/WX    TMP DP  RH WIND       PRES   REMARKS
SIOUX FALLS    CLOUDY    75  68  78 S10       29.91R
BROOKINGS      MOCLDY    72  66  83 S6        29.93S
WATERTOWN      MOCLDY    69  65  86 NE3       29.91S
HURON          PTCLDY    64  63  96 NW5       29.90R
SISSETON         N/A     66  62  87 NW3       29.89R
ABERDEEN       MOCLDY    61  58  90 SW3       29.91R
MITCHELL       PTCLDY    68  66  93 W5        29.91R
PIERRE         PTCLDY    61  59  93 NE5       29.90F
MOBRIDGE       CLOUDY    61  56  83 E6        29.90S
RAPID CITY     MOCLDY    62  57  83 E6        29.94F
$$

  *****  SOME WEATHER IN NEARBY STATES *****

CITY           SKY/WX    TMP DP  RH WIND       PRES   REMARKS
GLASGOW MT     CLEAR     60  45  57 SE9       29.82F
GREAT FALLS MT MOCLDY    57  37  47 S8        29.88S
CHEYENNE WY    CLEAR     57  47  69 SW9       30.16F
SCOTTSBLUFF NE PTCLDY    64  55  72 W3        30.01F
OMAHA NE       CLEAR     75  69  81 S7        29.92S
DES MOINES IA  PTCLDY    75  70  84 S6        29.95S
DAVENPORT IA   PTCLDY    75  71  87 S8        30.01R
CHICAGO IL     CLEAR     72  68  87 SE6       30.04R
EAU CLAIRE WI  PTCLDY    73  69  87 S10       29.94S
LA CROSSE WI   PTCLDY    72  70  93 SW6       29.96S
$$

  *****  SOME NATIONAL WEATHER *****

CITY           SKY/WX    TMP DP  RH WIND       PRES   REMARKS
LA GUARDIA NY  PTCLDY    82  67  60 W7        29.99R
RALEIGH NC     MOCLDY    70  68  94 CALM      30.09F FOG
ATLANTA GA     CLEAR     73  68  84 CALM      30.12F
NEW ORLEANS LA PTCLDY    79  70  74 CALM      30.04S
OKLAHOMA CITY  CLEAR     75  63  66 S8        30.01R
ALBUQUERQUE NM MOCLDY    74  48  39 W5        30.17R
SALT LAKE CITY CLEAR     74  40  29 SE9       29.96S
LOS ANGELES CA PTCLDY    70  65  84 W7        29.90R
BOISE ID       CLEAR     68  43  40 CALM      29.90S
SEATTLE WA     MOCLDY    63  54  72 SW17G24   29.92S
$$

*** WEATHER ACROSS MANITOBA...SASKATCHEWAN AND ONTARIO ***
                ***ONTARIO***

CITY           SKY/WX    TMP DP  RH WIND       PRES   REMARKS
GERALDTON      CLOUDY    66  63  88 SW9G18    29.80R FOG
THUNDER BAY    MOCLDY    63  61  94 NE5       29.82S
SIOUX LOOKOUT  MOCLDY    64  63  94 SW5       29.81R
TORONTO        CLEAR     68  64  88 N7        30.05R
BIG TROUT LK   CLEAR     63  61  94 W12       29.57S
PICKLE LAKE    NOT AVBL
DRYDEN         CLEAR     64  63  94 SW7       29.81R
KENORA         PTCLDY    64  63  94 SW6       29.81R
$$
                *** MANITOBA***

CITY           SKY/WX    TMP DP  RH WIND       PRES   REMARKS
BRANDON        PTCLDY    54  48  82 SW9       29.79S
DAUPHIN        CLEAR     63  48  59 SW12G17   29.71S
ISLAND LAKE    CLEAR     61  59  94 SW5       29.62R
PILOT MOUND      N/A     54  45  71 SW7         N/A
THE PAS        PTCLDY    63  54  72 SW7       29.59R
THOMPSON       DRIZZLE   57  55  94 N3        29.60R
WINNIPEG       CLEAR     63  48  59 SW10      29.78R
LYNN LAKE      CLEAR     52  50  93 MISG      29.56R
CHURCHILL      CLOUDY    46  45  93 E8        29.62R
$$
                ***SASKATCHEWAN***

CITY           SKY/WX    TMP DP  RH WIND       PRES   REMARKS
ESTEVAN        NOT AVBL
KINDERSLEY     MOCLDY    52  41  66 SW7       29.68S
LLOYDMINSTER   MOCLDY    55  39  54 S9        29.62S
PRINCE ALBERT  PTCLDY    48  43  81 NE2       29.64S
REGINA         CLOUDY    54  46  76 S10       29.75S
YORKTON        CLEAR     57  46  67 S10       29.73S
N. BATTLEFORD  CLEAR     52  41  66 SE6       29.66F



USA.gov is the U.S. government's official web portal to all federal, state and local government web resources and services.